| time (UTC) | temp C | wind direction | speed KPH | gust KPH | rain 1hr cm | rain 24hr cm | rain mn cm | humidity % | barometer mb |
| 20260504034558 | 13 | 4 | 4.8 | 16.1 | 0.00 | 0.00 | 0.00 | 37 | 1007.4 |
| 20260504033102 | 13 | 135 | 4.8 | 16.1 | 0.00 | 0.00 | 0.00 | 36 | 1006.7 |
| 20260504031602 | 13 | 19 | 8.0 | 22.5 | 0.00 | 0.00 | 0.00 | 35 | 1006.5 |
| 20260504030057 | 13 | 77 | 8.0 | 20.9 | 0.00 | 0.00 | 0.00 | 35 | 1006.2 |
| 20260504024556 | 13 | 64 | 8.0 | 22.5 | 0.00 | 0.00 | 0.00 | 34 | 1005.7 |
| 20260504023056 | 14 | 8 | 6.4 | 17.7 | 0.00 | 0.00 | 0.00 | 33 | 1005.4 |
| 20260504021557 | 15 | 18 | 9.7 | 25.7 | 0.00 | 0.00 | 0.00 | 31 | 1005.0 |
| 20260504020131 | 17 | 57 | 9.7 | 19.3 | 0.00 | 0.00 | 0.00 | 31 | 1004.7 |
| 20260504014604 | 17 | 9 | 4.8 | 19.3 | 0.00 | 0.00 | 0.00 | 31 | 1004.4 |
| 20260504013115 | 18 | 357 | 11.3 | 22.5 | 0.00 | 0.00 | 0.00 | 30 | 1004.3 |
| 20260504011553 | 18 | 1 | 14.5 | 32.2 | 0.00 | 0.00 | 0.00 | 28 | 1004.2 |
| 20260504010051 | 18 | 36 | 12.9 | 29.0 | 0.00 | 0.00 | 0.00 | 27 | 1004.1 |
| 20260504004620 | 19 | 19 | 17.7 | 30.6 | 0.00 | 0.00 | 0.00 | 27 | 1004.2 |
| 20260504003058 | 19 | 1 | 17.7 | 30.6 | 0.00 | 0.00 | 0.00 | 26 | 1004.2 |
| 20260504001618 | 20 | 25 | 20.9 | 41.8 | 0.00 | 0.00 | 0.00 | 27 | 1004.1 |
| 20260504000056 | 20 | 354 | 20.9 | 33.8 | 0.00 | 0.00 | 0.00 | 26 | 1004.0 |
| 20260503234548 | 21 | 325 | 16.1 | 38.6 | 0.00 | 0.00 | 0.00 | 26 | 1003.9 |
| 20260503233049 | 22 | 32 | 20.9 | 33.8 | 0.00 | 0.00 | 0.00 | 24 | 1003.9 |
| 20260503231548 | 22 | 354 | 16.1 | 29.0 | 0.00 | 0.00 | 0.00 | 23 | 1003.8 |
| 20260503230108 | 22 | 1 | 16.1 | 29.0 | 0.00 | 0.00 | 0.00 | 22 | 1003.8 |
| 20260503224545 | 23 | 347 | 12.9 | 30.6 | 0.00 | 0.00 | 0.00 | 20 | 1003.8 |
| 20260503223045 | 23 | 287 | 9.7 | 29.0 | 0.00 | 0.00 | 0.00 | 20 | 1003.8 |
| 20260503221543 | 23 | 245 | 8.0 | 32.2 | 0.00 | 0.00 | 0.00 | 20 | 1003.9 |
| 20260503220047 | 23 | 245 | 22.5 | 32.2 | 0.00 | 0.00 | 0.00 | 18 | 1004.0 |
| 20260503214538 | 23 | 339 | 11.3 | 32.2 | 0.00 | 0.00 | 0.00 | 20 | 1004.2 |
| 20260503213036 | 23 | 314 | 12.9 | 29.0 | 0.00 | 0.00 | 0.00 | 21 | 1004.4 |
| 20260503211532 | 23 | 262 | 14.5 | 29.0 | 0.00 | 0.00 | 0.00 | 21 | 1004.7 |
| 20260503210030 | 22 | 300 | 16.1 | 29.0 | 0.00 | 0.00 | 0.00 | 22 | 1004.8 |
| 20260503204527 | 22 | 330 | 11.3 | 38.6 | 0.00 | 0.00 | 0.00 | 24 | 1005.0 |
| 20260503203042 | 22 | 250 | 11.3 | 33.8 | 0.00 | 0.00 | 0.00 | 24 | 1005.2 |
| 20260503201523 | 22 | 240 | 12.9 | 29.0 | 0.00 | 0.00 | 0.00 | 24 | 1005.7 |
| 20260503200020 | 22 | 322 | 11.3 | 33.8 | 0.00 | 0.00 | 0.00 | 24 | 1005.8 |
| 20260503194533 | 22 | 249 | 14.5 | 27.4 | 0.00 | 0.00 | 0.00 | 24 | 1006.0 |
| 20260503193017 | 21 | 307 | 14.5 | 32.2 | 0.00 | 0.00 | 0.00 | 24 | 1006.1 |
| 20260503191514 | 21 | 345 | 8.0 | 29.0 | 0.00 | 0.00 | 0.00 | 26 | 1006.3 |
| 20260503190016 | 21 | 276 | 11.3 | 27.4 | 0.00 | 0.00 | 0.00 | 26 | 1006.6 |
| 20260503184515 | 21 | 12 | 11.3 | 24.1 | 0.00 | 0.00 | 0.00 | 26 | 1006.8 |
| 20260503183006 | 21 | 319 | 11.3 | 25.7 | 0.00 | 0.00 | 0.00 | 26 | 1007.0 |
| 20260503181504 | 20 | 285 | 9.7 | 27.4 | 0.00 | 0.00 | 0.00 | 27 | 1007.2 |
| 20260503180059 | 20 | 304 | 11.3 | 20.9 | 0.00 | 0.00 | 0.00 | 28 | 1007.4 |
| 20260503174558 | 19 | 302 | 8.0 | 19.3 | 0.00 | 0.00 | 0.00 | 29 | 1007.7 |
| 20260503173056 | 20 | 270 | 6.4 | 16.1 | 0.00 | 0.00 | 0.00 | 28 | 1007.9 |
| 20260503171552 | 18 | 251 | 6.4 | 16.1 | 0.00 | 0.00 | 0.00 | 32 | 1008.0 |
| 20260503081533 | 7 | 184 | 4.8 | 11.3 | 0.00 | 0.00 | 0.00 | 73 | 1010.2 |
| 20260503071506 | 5 | 230 | 3.2 | 8.0 | 0.00 | 0.00 | 0.00 | 75 | 1010.7 |
| 20260503060114 | 5 | 224 | 0.0 | 3.2 | 0.00 | 0.00 | 0.00 | 72 | 1010.7 |
| 20260503054602 | 5 | 239 | 0.0 | 1.6 | 0.00 | 0.00 | 0.00 | 71 | 1010.7 |
| 20260503053047 | 6 | 217 | 0.0 | 1.6 | 0.00 | 0.00 | 0.00 | 70 | 1010.9 |
| 20260503051545 | 6 | 228 | 0.0 | 1.6 | 0.00 | 0.00 | 0.00 | 70 | 1010.9 |
| 20260503050044 | 7 | 234 | 0.0 | 1.6 | 0.00 | 0.00 | 0.00 | 66 | 1011.0 |
| 20260503044543 | 7 | 135 | 0.0 | 1.6 | 0.00 | 0.00 | 0.00 | 67 | 1011.0 |
| 20260503043047 | 7 | 159 | 0.0 | 1.6 | 0.00 | 0.00 | 0.00 | 65 | 1011.1 |
| 20260503041546 | 8 | 148 | 0.0 | 1.6 | 0.00 | 0.00 | 0.00 | 64 | 1011.1 |
| 20260503040042 | 9 | 194 | 0.0 | 1.6 | 0.00 | 0.00 | 0.00 | 60 | 1011.0 |